カタログに戻る

FENGYUN 1C DEB

運用中PO
NORAD 31236·DEBRIS·🇨🇳 China

打ち上げ May 10, 1999 から Taiyuan Satellite Launch Center

Loading…

次のパス (今後24時間)

TLE

最新Source: Space-Track

元期: Sep 13, 2026, 18:35 UTC

1 31236U 99025BLS 26256.77436424  .00005443  00000-0  30943-2 0  9995
2 31236  98.5435 194.1820 0308224  11.3685 349.4235 13.88946062648396

AllMySatでFENGYUN 1C DEBをリアルタイム追跡

Download on the App Store